KUIPER-00420

导读 | 豆包AI

KUIPER-00420(NORAD编号68932)是亚马逊柯伊伯(Kuiper)卫星互联网项目的一颗低轨宽带卫星,属于Kuiper大规模星座部署计划的组成部分。该项目计划发射数千颗卫星,旨在构建覆盖全球的高速低延迟卫星宽带网络,弥补地面网络覆盖不足,提供普惠性互联网接入服务。依托近地轨道(LEO)运行,该卫星承担网络通信节点功能,助力Kuiper与SpaceX星链等系统竞争全球卫星互联网市场,目前处于在轨运行状态,服务于全球宽带网络部署。

Basic Information
目录编号:
68932
目录名称:
KUIPER-00420
国际标识:
2026-098P
轨道中心:
EARTH
卫星名称:
KUIPER-00420
卫星全名:
KUIPER-00420
卫星状态:
在轨 (已飞行25 天)
发射日期:
2026-04-30 UTC
国别 :
美国 (US)
星等 :
--
Orbit Information
数据来源 国际轨道数据 AOE轨道数据
星历时间 2026-05-24T11:08:49+0800
1天前
查看轨道信息
2026-05-22T07:00:00+0800
3天前
查看轨道信息
半长轴 6838.141km 6838.259km
偏心率 0.000406 0.0003704
轨道倾角 51.875° 51.876°
近地点辐角 71.986° 60.733°
升交点赤经 183.537° 194.009°
平近点角 288.156° 162.757°
近地点 457.227km 457.589km
远地点 462.781km 462.655km
周期 93.792分钟 93.795分钟
每日圈数 15.353089 15.352689
Detailed Information
使用方式:
暂无
2D Orbit Map
3D Orbit Map
Orbit Altitude Analysis Chart
Orbit Inclination Analysis Chart
Orbit Comprehensive Analysis Chart
View Comprehensive Chart